Location: Tel Aviv
(32.0670°N, 34.7670°E)
Time: 11:09:22
(UTC+02:00)

A-11 Canister half - All Passes

Search period start: 28 January 2022 00:00
Search period end: 07 February 2022 00:00
Orbit: 1524 x 1684 km, 47.3° (Epoch: 27 January)

Date Brightness Start Highest point End Pass type
(mag) Time Alt. Az. Time Alt. Az. Time Alt. Az.
28 Jan - 07:01:34 10° SSE 07:07:16 18° SE 07:12:57 10° E daylight
28 Jan - 09:01:53 10° SW 09:11:08 76° SE 09:20:31 10° NE daylight
28 Jan - 11:08:00 10° W 11:16:44 43° NNW 11:25:41 10° NE daylight
28 Jan - 13:15:50 10° WNW 13:24:03 32° N 13:32:28 10° ENE daylight
28 Jan - 15:21:43 10° NW 15:31:05 53° NNE 15:40:43 10° ESE daylight
28 Jan - 17:26:51 10° WNW 17:36:20 58° SW 17:46:05 10° SSE visible
28 Jan - 19:37:05 10° WSW 19:40:08 12° WSW 19:43:13 10° SW visible
29 Jan - 06:40:25 10° SSE 06:45:40 16° ESE 06:50:54 10° E daylight
29 Jan - 08:40:16 10° SW 08:49:29 73° SE 08:58:48 10° NE daylight
29 Jan - 10:46:13 10° W 10:54:59 44° NNW 11:03:58 10° NE daylight
29 Jan - 12:54:05 10° WNW 13:02:15 32° N 13:10:37 10° ENE daylight
29 Jan - 15:00:04 10° NW 15:09:20 51° NNE 15:18:53 10° ESE daylight
29 Jan - 17:05:09 10° WNW 17:14:39 61° SW 17:24:27 10° SSE daylight
29 Jan - 19:14:34 10° W 19:18:31 13° WSW 19:22:31 10° SSW visible
30 Jan - 06:19:20 10° SSE 06:24:05 15° ESE 06:28:47 10° E daylight
30 Jan - 08:18:39 10° SW 08:27:50 69° SE 08:37:06 10° NE daylight
30 Jan - 10:24:26 10° W 10:33:15 46° NNW 10:42:15 10° NE daylight
30 Jan - 12:32:19 10° WNW 12:40:27 32° N 12:48:47 10° ENE daylight
30 Jan - 14:38:24 10° NW 14:47:35 49° NNE 14:57:04 10° E daylight
30 Jan - 16:43:27 10° WNW 16:52:59 64° SW 17:02:49 10° SE daylight
30 Jan - 18:52:15 10° W 18:56:53 14° WSW 19:01:35 10° SSW visible
31 Jan - 05:58:21 10° SSE 06:02:28 14° ESE 06:06:34 10° E visible
31 Jan - 07:57:03 10° SW 08:06:12 65° SE 08:15:24 10° ENE daylight
31 Jan - 10:02:39 10° W 10:11:31 47° NNW 10:20:33 10° NE daylight
31 Jan - 12:10:33 10° WNW 12:18:39 31° N 12:26:57 10° ENE daylight
31 Jan - 14:16:44 10° NW 14:25:50 47° NNE 14:35:14 10° E daylight
31 Jan - 16:21:45 10° NW 16:31:18 68° SW 16:41:11 10° SE daylight
31 Jan - 18:30:03 10° W 18:35:15 16° WSW 18:40:33 10° SSW visible
01 Feb - 05:37:32 10° SE 05:40:52 12° ESE 05:44:12 10° E visible
01 Feb - 07:35:27 10° SSW 07:44:33 62° SE 07:53:42 10° ENE daylight
01 Feb - 09:40:53 10° W 09:49:47 49° NNW 09:58:50 10° NE daylight
01 Feb - 11:48:46 10° WNW 11:56:51 31° N 12:05:08 10° ENE daylight
01 Feb - 13:55:02 10° NW 14:04:05 46° NNE 14:13:23 10° E daylight
01 Feb - 16:00:03 10° NW 16:09:38 71° SW 16:19:31 10° SE daylight
01 Feb - 18:07:57 10° W 18:13:38 17° SW 18:19:24 10° SSW visible
02 Feb - 05:17:00 10° SE 05:19:16 11° ESE 05:21:32 10° ESE visible
02 Feb - 07:13:51 10° SSW 07:22:55 58° SE 07:31:58 10° ENE daylight
02 Feb - 09:19:06 10° WSW 09:28:03 51° NNW 09:37:09 10° NE daylight
02 Feb - 11:26:59 10° WNW 11:35:04 31° N 11:43:20 10° ENE daylight
02 Feb - 13:33:22 10° NW 13:42:20 44° NNE 13:51:33 10° E daylight
02 Feb - 15:38:22 10° NW 15:47:57 75° SW 15:57:51 10° SE daylight
02 Feb - 17:45:55 10° W 17:51:59 18° SW 17:58:12 10° SSW visible
03 Feb - 06:52:17 10° SSW 07:01:17 55° SE 07:10:15 10° ENE daylight
03 Feb - 08:57:20 10° WSW 09:06:20 52° NNW 09:15:27 10° NE daylight
03 Feb - 11:05:12 10° WNW 11:13:16 31° N 11:21:30 10° ENE daylight
03 Feb - 13:11:42 10° NW 13:20:34 43° NNE 13:29:42 10° E daylight
03 Feb - 15:16:41 10° NW 15:26:16 78° SW 15:36:11 10° SE daylight
03 Feb - 17:23:55 10° W 17:30:22 20° SW 17:36:57 10° SSW daylight
04 Feb - 06:30:44 10° SSW 06:39:39 52° SE 06:48:31 10° ENE daylight
04 Feb - 08:35:34 10° WSW 08:44:37 55° NNW 08:53:46 10° NE daylight
04 Feb - 10:43:25 10° WNW 10:51:29 32° N 10:59:43 10° NE daylight
04 Feb - 12:50:01 10° NW 12:58:49 42° NNE 13:07:51 10° E daylight
04 Feb - 14:55:01 10° NW 15:04:34 82° SW 15:14:29 10° SE daylight
04 Feb - 17:01:58 10° W 17:08:44 22° SW 17:15:40 10° S daylight
05 Feb - 06:09:10 10° SSW 06:18:01 49° SE 06:26:48 10° ENE visible
05 Feb - 08:13:48 10° WSW 08:22:54 57° NNW 08:32:05 10° NE daylight
05 Feb - 10:21:36 10° WNW 10:29:41 32° N 10:37:55 10° NE daylight
05 Feb - 12:28:20 10° NW 12:37:02 40° NNE 12:45:59 10° E daylight
05 Feb - 14:33:20 10° NW 14:42:54 86° SW 14:52:47 10° SE daylight
05 Feb - 16:40:03 10° WNW 16:47:05 23° SW 16:54:20 10° S daylight
06 Feb - 05:47:38 10° SSW 05:56:23 46° SE 06:05:04 10° ENE visible
06 Feb - 07:52:03 10° WSW 08:01:12 59° NNW 08:10:24 10° NE daylight
06 Feb - 09:59:48 10° WNW 10:07:54 32° N 10:16:08 10° NE daylight
06 Feb - 12:06:38 10° NW 12:15:17 39° NNE 12:24:08 10° E daylight
06 Feb - 14:11:39 10° NW 14:21:12 89° SW 14:31:05 10° SE daylight
06 Feb - 16:18:10 10° WNW 16:25:28 25° SW 16:32:58 10° S daylight
